Weather in North Bay

Canada     46°18′45″N   79°27′57″W
temp.,
°C
wind,
m/s
gust,
m/s
humid.,
%
clouds,
%
prec.,
mm/h
press.,
hPa
HPBL,
m
16 september, thu
thu1623:00+14sw47843 0.0 1017228
02:00+13ssw3387100 0.0 1019188
05:00+12ssw3482100 0.0 1020177
08:00+13sw34780 0.0 1022221
11:00+16sw23570 0.0 1023419
14:00+19w13440 0.0 1022532
17:00+20sw13420 0.0 1021466
20:00+18sw23590 0.0 102174
17 september, fri
fri1723:00+15sse24680 0.0 1021108
02:00+15s511720 0.0 1021278
05:00+14s49770 0.0 1021250
08:00+15s49851 0.0 1020277
11:00+20sw58661 0.0 1020674
14:00+24sw59550 0.0 1017693
17:00+24ssw59560 0.0 1015596
20:00+20sw49730 0.0 1016261
18 september, sat
sat1823:00+18wsw388992 0.0 1017283
02:00+16n3685100 0.2 1018363
05:00+14nne359212 0.0 1020255
08:00+12nne35861 0.0 1021229
11:00+16n2366100 0.0 1022631
14:00+18nw2353100 0.0 1021964
17:00+19nnw33484 0.0 10211220
20:00+16nne346138 0.0 1022267
19 september, sun
sun1923:00+13e3467100 0.0 1023123
02:00+12e3368100 0.0 1024129
05:00+11e337147 0.0 1025123
08:00+11ese34715 0.0 1025147
11:00+16se23495 0.0 1025432
14:00+20sw13425 0.0 1022424
17:00+22sw36450 0.0 1020381
20:00+18ssw35580 0.0 102083
20 september, mon
mon2023:00+16s37600 0.0 1020156
02:00+17ssw38650 0.0 1020205
05:00+17ssw512760 0.0 1020319
08:00+18ssw411814 0.0 1020314
11:00+22sw47710 0.0 1020278
14:00+25wsw37630 0.0 1020479
17:00+25sw36630 0.0 1019396
20:00+22sw22785 0.0 101912